星链-37435(STARLINK-37435)

导读

STARLINK-37435(NORAD编号69265)是美国SpaceX公司星链(Starlink)星座中的一颗低轨通信卫星,归属星链第二代卫星组网序列,运行于近地轨道,主要为全球范围内提供高速互联网接入服务。作为星链大规模组网计划的组成部分,该卫星延续了星链星座低成本、批量发射的特点,旨在补充全球卫星互联网覆盖容量。目前公开渠道暂未记录该卫星发生在轨异常或解体事件,延续星链星座典型的近地轨道运营模式,服务于消费级和行业级卫星互联网应用场景。

Basic Information
目录编号:
69265
目录名称:
STARLINK-37435
国际标识:
2026-117AD
轨道中心:
EARTH
卫星名称:
星链-37435
卫星全名:
星链-37435(STARLINK-37435)
卫星状态:
在轨 (已飞行99 天)
发射日期:
2026-05-29 UTC
国别 :
美国 (US)
星等 :
--
Orbit Information
数据来源 国际轨道数据 AOE轨道数据
星历时间 2026-09-05T12:18:56+0800
5小时前
查看轨道信息
2026-09-03T23:00:00+0800
1天前
查看轨道信息
半长轴 6840.833km 6840.882km
偏心率 0.0001453 0.0001332
轨道倾角 53.158° 53.156°
近地点辐角 86.412° 68.830°
升交点赤经 225.440° 232.710°
平近点角 273.704° 337.944°
近地点 461.702km 461.833km
远地点 463.69km 463.657km
周期 93.848分钟 93.849分钟
每日圈数 15.344025 15.343861
Detailed Information
固有亮度:
5
最大亮度:
2.5
卫星平台:
Starlink V1.0
覆盖范围:
全球
运营商:
太空探索技术公司
运营商所在国:
美国
制造商(研发单位):
太空探索技术公司
制造商所在国:
美国
使用方式:
暂无
Satellite Introduction
Starlink 计划是 SpaceX 推出的全球卫星互联网项目,通过发射低轨道卫星,为全球尤其是偏远地区提供高速、低延迟的互联网服务。自 2019 年起,Starlink 已部署数千颗卫星,旨在缩小全球数字鸿沟,推动互联网普及。该项目还为军事、航空等行业提供通信支持,带来广泛经济效益。
2D Orbit Map
3D Orbit Map
Orbit Altitude Analysis Chart
Orbit Inclination Analysis Chart
Orbit Comprehensive Analysis Chart
View Comprehensive Chart
Conjunction Data List
Event ID Objects TCA Miss Dist (km) Collision Risk Probability Collision Risk Index (CRI) Action
CDM_260907-135304-302406-926522
2026-09-07T
13:53:27+0000
1.589 km
极远距离
5.370419E-6 低风险 0.5